[[{"header":{"parameterUnit":"m.s-1","parameterCategory":1,"la1":30.2991,"la2":30.254,"lo1":-89.0895,"lo2":-89.0444,"dy":0.0017,"dx":0.0017,"nx":28,"ny":28,"refTime":"2025-03-21T09:00:00:Z","depth":0,"parameterNumber":2,"parameterNumberName":"U-component_of_WINDS"},"data":[0,0,0,0,0,0,0,0,0,0,0,0,0,0,0,0,0,0,0,0,0,0,0,0,0,0,0,0,0,0,0,0,0,0,0,0,0,0,0,0,0,0,0,0,0,0,0,0,0,0,0,0,0,0,0,0,0,0,4.1432,4.1435,0,4.1681,4.1683,4.1686,4.1667,4.1663,4.166,4.1656,4.1912,4.1922,4.1932,0,0,0,0,0,0,0,0,0,0,0,0,0,4.0938,4.0948,4.1432,4.1435,4.1438,4.168,4.1684,4.1687,4.1668,4.1663,4.1659,4.1654,4.1909,4.1921,4.1933,0,0,0,0,0,0,0,0,0,0,0,0,0,4.1166,4.0951,4.1431,4.1458,4.1462,4.1679,4.1684,4.1688,4.1669,4.1663,4.1657,4.1652,4.1905,4.192,4.1935,4.2142,0,0,4.1982,4.1989,0,0,0,0,0,0,0,0,4.1154,4.1185,4.1451,4.1456,4.1462,4.1637,4.1603,4.184,4.167,4.159,4.1656,4.1649,4.1825,4.1847,4.1906,4.2154,4.2165,4.1983,4.1993,4.1999,4.2004,0,0,0,0,0,0,0,4.1138,4.1174,4.153,4.1454,4.1461,4.1456,4.1482,4.1648,4.1736,4.1597,4.1596,4.1626,4.1827,4.1891,4.1912,4.2169,4.1983,4.1997,4.2006,4.2012,4.2595,4.2601,0,0,0,0,0,0,4.1116,4.1161,4.1522,4.1538,4.1291,4.147,4.1499,4.1587,4.1734,4.1751,4.163,4.1624,4.1867,4.1894,4.1921,4.2169,4.1999,4.2014,4.2023,4.2589,4.2596,4.2603,0,0,0,0,0,0,4.1106,4.1149,4.1512,4.1349,4.1395,4.1484,4.1583,4.1594,4.1658,4.176,4.1775,4.1679,4.1864,4.1899,4.2086,4.2178,4.2021,4.2035,4.2581,4.2591,4.2599,4.267,0,0,0,0,0,0,4.1091,4.1145,4.1225,4.1351,4.1404,4.1674,4.1588,4.1603,4.1685,4.1679,4.181,4.1826,4.1862,4.2063,4.2101,4.2196,4.2047,4.2573,4.2585,4.2596,4.266,4.2681,4.2698,0,0,0,0,0,4.1074,4.1237,4.123,4.1273,4.1506,4.168,4.171,4.1748,4.1692,4.1773,4.1837,4.1822,4.2162,4.2082,4.2125,4.2226,4.2568,4.2582,4.2596,4.2651,4.2677,4.2698,0,0,0,0,0,0,4.1121,4.1254,4.1247,4.1456,4.1556,4.1676,4.1779,4.1774,4.1893,4.1883,4.1925,4.1955,4.2142,4.2204,4.2112,4.2432,4.2357,4.2381,4.2385,4.241,4.2429,4.2409,4.206,0,0,0,0,0,4.1156,4.1286,4.1395,4.1568,4.1619,4.169,4.1768,4.1788,4.1894,4.1937,4.2015,4.2118,4.2248,4.2333,4.2458,4.2669,4.2695,4.276,4.2779,4.2794,4.2813,4.2924,4.2952,4.2649,4.2648,4.2648,0,0,4.1229,4.1317,4.1397,4.158,4.166,4.1792,4.1727,4.1871,4.1968,4.1959,4.2138,4.22,4.2318,4.2516,4.2608,4.2573,4.2902,4.2812,4.2823,4.2834,4.2941,4.297,4.2995,4.2658,4.2656,4.2655,0,0,4.1428,4.151,4.1661,4.1742,4.1863,4.1909,4.1945,4.2066,4.2105,4.2286,4.228,4.2397,4.2621,4.2704,4.2776,4.3002,4.2991,4.3042,4.3142,4.325,4.3273,4.3295,4.3371,4.3399,4.3061,4.3061,4.3061,0,4.1504,4.1703,4.174,4.1883,4.1962,4.1958,4.2109,4.2186,4.2343,4.2397,4.2356,4.2633,4.2713,4.2928,4.2983,4.3043,4.3083,4.3026,4.3267,4.3289,4.3309,4.3383,4.3412,4.3066,4.3066,4.3065,4.3065,0,4.1787,4.1925,4.2032,4.2181,4.2272,4.242,4.2477,4.2565,4.2577,4.2626,4.2808,4.2904,4.3045,4.3099,4.3113,4.3315,4.3289,4.3258,4.3183,4.3343,4.3412,4.3441,4.3074,4.3072,4.307,4.3069,0,0,4.2025,4.2189,4.2227,4.2292,4.2425,4.2532,4.2677,4.2815,4.2887,4.2995,4.3116,4.3304,4.3273,4.3355,4.3378,4.3473,4.364,4.3429,4.3432,4.3461,4.3864,4.3884,4.3917,4.3634,4.364,4.3644,4.3853,0,4.2234,4.2491,4.2527,4.2754,4.2879,4.2875,4.3001,4.3095,4.3145,4.3258,4.3313,4.3443,4.3396,4.3444,4.3538,4.36,4.3721,4.3586,4.3745,4.375,4.3712,4.3954,4.3977,4.4169,4.388,4.3885,4.3889,0,4.2514,4.2626,4.2865,4.2975,4.3029,4.3142,4.3268,4.3377,4.3482,4.3512,4.36,4.361,4.3758,4.3679,4.3882,4.3789,4.3856,4.3896,4.3904,4.3918,4.3827,4.3971,4.4232,4.4259,4.3933,4.3929,4.3926,0,4.2657,4.2869,4.3037,4.3094,4.3229,4.3307,4.3367,4.3466,4.3545,4.3656,4.3707,4.3834,4.3903,4.4001,4.4044,4.3983,4.4243,4.4168,4.4269,4.4268,4.4322,4.4318,4.4594,4.4372,4.4371,4.4371,4.437,0,4.2886,4.3031,4.3103,4.3207,4.3368,4.3407,4.3565,4.3622,4.371,4.3823,4.3829,4.3935,4.3987,4.41,4.4135,4.4295,4.4328,4.4354,4.4361,4.4352,4.4348,4.4394,4.438,4.4378,4.4377,4.4375,4.4374,0,4.3073,4.3128,4.331,4.3421,4.3452,4.3566,4.366,4.376,4.3807,4.395,4.3986,4.4061,4.4194,4.4247,4.4412,4.4435,4.4618,4.4617,4.4582,4.4583,4.4679,4.4668,4.4993,4.5035,4.4788,4.479,4.4792,0,4.3214,4.3325,4.3447,4.3522,4.3583,4.3706,4.3785,4.3827,4.3909,4.4035,4.4118,4.4251,4.4359,4.4572,4.4641,4.4765,4.4764,4.4869,4.4783,4.4768,4.4761,4.4752,4.4761,4.4884,4.4887,4.4889,4.4891,0,4.3457,4.3477,4.3591,4.3714,4.3808,4.3907,4.4003,4.4065,4.4121,4.4213,4.4348,4.4432,4.4597,4.4727,4.4855,4.4915,4.4911,4.4917,4.4946,4.4936,4.491,4.4921,4.4621,4.4909,4.4907,4.4906,4.4905,4.4904,4.3623,4.3719,4.3818,4.3944,4.402,4.4109,4.4206,4.4264,4.4378,4.4514,4.4533,4.4676,4.4775,4.4945,4.501,4.5123,4.5095,4.5139,4.5149,4.5158,4.5162,4.4894,4.5147,4.5146,4.5146,4.5145,4.5145,0,4.3862,4.3924,4.404,4.4172,4.427,4.4258,4.4363,4.4445,4.4571,4.4663,4.4768,4.4922,4.5047,4.5124,4.525,4.5325,4.5326,4.5356,4.5349,4.5362,4.5182,4.5142,4.5353,4.5353,4.5353,4.5352,4.5352,4.5352,4.3997,4.4158,4.419,4.4387,4.4449,4.4589,4.4649,4.473,4.4803,4.4973,4.5076,4.5126,4.5211,4.5342,4.5456,4.5475,4.5519,4.5551,4.5568,4.5397,4.5376,4.5355,4.5317,4.5561,4.5562,4.5738,4.574,4.5741]},{"header":{"parameterUnit":"m.s-1","parameterCategory":1,"la1":30.2991,"la2":30.254,"lo1":-89.0895,"lo2":-89.0444,"dy":0.0017,"dx":0.0017,"nx":28,"ny":28,"refTime":"2025-03-21T09:00:00:Z","depth":0,"parameterNumber":3,"parameterNumberName":"V-component_of_WINDS"},"data":[0,0,0,0,0,0,0,0,0,0,0,0,0,0,0,0,0,0,0,0,0,0,0,0,0,0,0,0,0,0,0,0,0,0,0,0,0,0,0,0,0,0,0,0,0,0,0,0,0,0,0,0,0,0,0,0,0,0,0.7724,0.7724,0,0.7744,0.7744,0.7745,0.7709,0.7708,0.7706,0.7705,0.7728,0.7729,0.7731,0,0,0,0,0,0,0,0,0,0,0,0,0,0.7653,0.7655,0.7724,0.7724,0.7724,0.7744,0.7744,0.7745,0.7709,0.7708,0.7706,0.7705,0.7727,0.7729,0.7731,0,0,0,0,0,0,0,0,0,0,0,0,0,0.768,0.7655,0.7724,0.7709,0.7708,0.7744,0.7744,0.7745,0.7709,0.7708,0.7706,0.7704,0.7726,0.7729,0.7731,0.7784,0,0,0.7739,0.774,0,0,0,0,0,0,0,0,0.7678,0.7682,0.7711,0.771,0.7709,0.7722,0.7728,0.7758,0.771,0.7709,0.7705,0.7703,0.7727,0.773,0.7738,0.7785,0.7786,0.7739,0.7741,0.7742,0.7743,0,0,0,0,0,0,0,0.7676,0.7681,0.7732,0.7711,0.771,0.7701,0.7703,0.7733,0.7728,0.7709,0.7706,0.7709,0.7726,0.7735,0.7738,0.7786,0.7739,0.7742,0.7743,0.7744,0.7874,0.7876,0,0,0,0,0,0,0.7676,0.768,0.7731,0.7732,0.7689,0.7704,0.7706,0.772,0.7728,0.7727,0.7711,0.7707,0.7732,0.7735,0.7738,0.7798,0.7742,0.7744,0.7746,0.7872,0.7874,0.7876,0,0,0,0,0,0,0.7675,0.7681,0.773,0.7706,0.7711,0.7707,0.7723,0.7721,0.773,0.7729,0.7728,0.7721,0.773,0.7735,0.7772,0.7799,0.7746,0.7748,0.787,0.7873,0.7875,0.792,0,0,0,0,0,0,0.7673,0.7681,0.7701,0.7706,0.7713,0.7764,0.7725,0.7723,0.7734,0.773,0.7738,0.7738,0.7729,0.7768,0.7774,0.7801,0.775,0.7867,0.7871,0.7874,0.7916,0.7924,0.793,0,0,0,0,0,0.7671,0.7714,0.7703,0.7709,0.7738,0.7766,0.7769,0.7758,0.7737,0.7756,0.7755,0.7737,0.7795,0.7772,0.7779,0.7807,0.7866,0.787,0.7874,0.7913,0.7922,0.793,0,0,0,0,0,0,0.7714,0.7715,0.7702,0.7748,0.7757,0.776,0.7785,0.7769,0.7785,0.7781,0.7767,0.7769,0.7808,0.7811,0.7787,0.7856,0.7826,0.7832,0.7853,0.7862,0.787,0.7868,0.7752,0,0,0,0,0,0.7728,0.7751,0.775,0.7791,0.7796,0.7789,0.7801,0.7792,0.7801,0.7805,0.7806,0.7816,0.7835,0.7849,0.7868,0.7916,0.7916,0.7938,0.7945,0.7951,0.7957,0.798,0.7989,0.789,0.789,0.789,0,0,0.776,0.7762,0.7778,0.78,0.7805,0.7828,0.7793,0.782,0.7836,0.7809,0.7843,0.7845,0.7854,0.7896,0.7915,0.79,0.7984,0.7957,0.7962,0.7964,0.7985,0.7995,0.8003,0.7893,0.7893,0.7892,0,0,0.7827,0.7833,0.7866,0.7871,0.788,0.7875,0.7883,0.7887,0.7887,0.7921,0.79,0.7919,0.7954,0.7961,0.7969,0.8036,0.802,0.8043,0.8081,0.8104,0.8112,0.8119,0.8141,0.815,0.8048,0.8048,0.8048,0,0.7865,0.7899,0.7885,0.7912,0.7921,0.7896,0.7929,0.7935,0.795,0.7957,0.7939,0.7981,0.7986,0.8028,0.8044,0.8052,0.8059,0.8042,0.8112,0.8119,0.8125,0.8146,0.8155,0.8051,0.805,0.805,0.805,0,0.7944,0.7967,0.7993,0.8006,0.8018,0.8048,0.8038,0.8052,0.8041,0.8037,0.8071,0.8076,0.8093,0.8102,0.8093,0.8143,0.8133,0.8114,0.8083,0.8137,0.8157,0.8165,0.8054,0.8053,0.8053,0.8052,0,0,0.8042,0.8044,0.8053,0.8058,0.8064,0.8082,0.8109,0.8126,0.8137,0.8147,0.817,0.8199,0.818,0.8189,0.8179,0.82,0.825,0.8178,0.8178,0.819,0.8304,0.8318,0.8328,0.8239,0.8241,0.8242,0.8303,0,0.8108,0.8155,0.8142,0.8189,0.821,0.8184,0.8208,0.8214,0.8211,0.8228,0.8224,0.8244,0.8219,0.8224,0.8243,0.824,0.8273,0.8236,0.8259,0.826,0.8257,0.8338,0.8354,0.8411,0.8311,0.8312,0.8313,0,0.8192,0.8203,0.8252,0.8252,0.826,0.8282,0.8294,0.8311,0.8316,0.8312,0.8321,0.8306,0.8333,0.8302,0.8337,0.8312,0.8321,0.8321,0.8323,0.8324,0.829,0.8341,0.8429,0.8438,0.8325,0.8324,0.8323,0,0.8257,0.8284,0.8316,0.8321,0.8322,0.8338,0.8339,0.8343,0.8352,0.8363,0.8369,0.8383,0.8391,0.8402,0.8391,0.8369,0.8428,0.8396,0.8424,0.8425,0.8438,0.8437,0.8528,0.8445,0.8445,0.8444,0.8444,0,0.8332,0.8362,0.8345,0.8365,0.8397,0.8381,0.8414,0.8413,0.8416,0.8434,0.8413,0.8431,0.8416,0.8432,0.8424,0.8454,0.8458,0.8455,0.8452,0.8456,0.8456,0.8462,0.8457,0.8447,0.8446,0.8446,0.8445,0,0.841,0.84,0.8432,0.843,0.843,0.8454,0.8451,0.8469,0.8463,0.8487,0.8491,0.8483,0.85,0.849,0.8509,0.8503,0.8542,0.8534,0.854,0.8537,0.8566,0.8563,0.8662,0.8674,0.8584,0.8585,0.8586,0,0.8459,0.8481,0.848,0.849,0.8492,0.8509,0.8518,0.8503,0.8513,0.8519,0.8536,0.8551,0.8563,0.8592,0.8588,0.8601,0.8593,0.8627,0.8595,0.8598,0.8592,0.8591,0.8592,0.8634,0.8635,0.8636,0.8636,0,0.8545,0.8538,0.8551,0.8562,0.8573,0.8581,0.8588,0.8597,0.8581,0.8594,0.8611,0.862,0.8637,0.8653,0.8664,0.8665,0.8648,0.8646,0.8653,0.8658,0.8659,0.8658,0.8556,0.8644,0.8643,0.8643,0.8642,0.8642,0.8609,0.8627,0.8628,0.8643,0.8645,0.8651,0.8667,0.8662,0.8676,0.8688,0.8678,0.8698,0.87,0.8713,0.8716,0.8731,0.8718,0.8728,0.8731,0.8734,0.8737,0.8657,0.8733,0.8733,0.8733,0.8733,0.8733,0,0.8693,0.8692,0.8706,0.8714,0.8725,0.8707,0.8712,0.8723,0.874,0.8744,0.8755,0.8773,0.8788,0.8783,0.8795,0.8808,0.88,0.8812,0.8811,0.8811,0.8749,0.8741,0.8818,0.8818,0.8818,0.8818,0.8818,0.8818,0.8739,0.8767,0.8759,0.8788,0.8787,0.8805,0.8809,0.8814,0.8816,0.8838,0.8849,0.8845,0.8845,0.8857,0.8868,0.8867,0.8872,0.8886,0.8881,0.8824,0.8815,0.8807,0.88,0.8887,0.8888,0.8941,0.8942,0.8942]}]]